Terminal Aerodrome Forecast
Issued by NWS Upton, NY

Home | Current Version | Previous Version | Text Only | Print | Product List | Glossary On
Versions: 1 2 3 4 5 6 7 8 9 10 11 12 13 14 15 16 17 18 19 20 21 22 23 24 25 26
000
FTUS41 KOKX 301100
TAFEWR
TAF
KEWR 301139Z 3012/3118 17005KT P6SM SCT040 SCT250
     FM301800 18010KT P6SM SCT050 SCT250
     FM310000 19007KT P6SM SCT040 BKN250
     FM310400 21006KT P6SM SCT040 BKN250
     FM311000 21006KT P6SM BKN020
     FM311500 20012KT P6SM SCT020 BKN040 PROB30 3115/3118 -SHRA=

USA.gov is the U.S. government's official web portal to all federal, state and local government web resources and services.